METEOR 2-8 DEB

Satellite information

Favourite Embed

Satellite Type and Status

DEBRISIN ORBIT

Key statistics

Satellite METEOR 2-8 DEB at a glance.

Uptime

15970

Days in orbit

Revolutions

≈ 14.2

Per day

Orbit

LEO

Low Earth Orbit

Inclination

82.5

Latest

Satellite identification and parameters

Extended collection of information and parameters for METEOR 2-8 DEB.

Object identification

Identified? True

Debris? True

Object name: METEOR 2-8 DEB

International designator: 1982-025N

Object number (NORAD): 36328

Object ID (CCSDS): 36328

Country: COMMONWEALTH OF INDEPENDENT STATES (CIS)

Current information (Y/N): Y

RCS size: SMALL

Orbital parameters

Period: 101.531 minutes

Inclination: 82.518 deg

SMA: 7209.31 km

Apoapsis: 846.701 km

Periapsis: 815.649 km

RAAN: 42.2357 deg

Eccentricy: 0.00215359

Argument of periapsis: 138.8561 deg

Mean anomaly: 221.4247 deg

Mean motion: 14.18280836 rev/day

Mean motion (dot): 0.00005391 rev/day2

B* drag term: 0.0026056174 1/REarth

Two-line elements (TLE)

Creation date: Dec. 9, 2025, 5:41 p.m.

Reference frame: TEME

Reference center: EARTH

Epoch: Dec. 9, 2025, 10:07 a.m. UTC

TLE line 0: 0 METEOR 2-8 DEB

TLE line 1: 1 36328U 82025N 25343.42195600 .00005391 00000-0 26056-2 0 9992

TLE line 2: 2 36328 82.5180 42.2357 0021536 138.8561 221.4247 14.18280836641330

Live tracking on map

Real-time ground track for satellite METEOR 2-8 DEB.

In-orbit conjunctions

A list of the most updated potential collisions computed for object METEOR 2-8 DEB.

Target Orbit TCA Probability of collision Miss distance Type
FENGYUN 1C DEB SSO 2025-09-08 01:16:45 0.0001303101 61.0 (m) DEBRIS
CZ-6A DEB LEO 2024-10-28 07:14:33 0.0001939763 582.0 (m) DEBRIS
FENGYUN 1C DEB SSO 2024-09-02 18:31:57 0.0002953848 149.0 (m) DEBRIS

Associated space launch

Second generation soviet meteorological satellite

METEOR 2-8 DEB was lifted into orbit during the mission ‘Tsiklon-3 | Meteor-2 8’, on board a Tsiklon-3 space rocket.

The launch took place on March 25, 1982, 9:50 a.m. from 32/1.

For more information about the launch, click the button.

Launch to space Tsiklon-3 | Meteor-2 8
Tsiklon-3 | Meteor-2 8

Agency: N/A

Status: Launch Successful

Launch date: March 25, 1982, 9:50 a.m. UTC

Rocket: Tsiklon-3

Launch pad: 32/1

Location: Plesetsk Cosmodrome, Russian Federation

...

Latest news about this satellite

There are no fresh news available about this satellite. Check back as we update our databases every day.


Newsletter sign-up

Weekly statistics, charts and insights to help you stay on top of the space industry.